Regional Weather Roundup
Issued by NWS Portland, ME

Current Version | Previous Version | Text Only | Print | Product List | Glossary On
Versions: 1 2 3 4 5 6 7 8 9 10 11 12 13 14 15 16 17 18 19 20 21 22 23 24 25 26 27 28 29 30 31 32 33 34 35 36 37 38 39 40 41 42 43 44 45 46 47 48 49 50
000
ASUS41 KGYX 292010
RWRGYX
WEATHER ROUNDUP FOR MAINE AND NEW HAMPSHIRE
NATIONAL WEATHER SERVICE GRAY ME
300 PM EST THU JAN 29 2015

MEZ002-005-006-010-012-015-018-020-021-024-026-027-029-292100-
MAINE

CITY           SKY/WX    TMP DP  RH WIND       PRES   REMARKS
PORTLAND       MOSUNNY   28   8  43 E7        30.21F
SANFORD        SUNNY     30   3  31 SE8       30.19F
BAR HARBOR     SUNNY     27  10  50 CALM      30.20F
WISCASSET      SUNNY     30   6  36 SW6       30.21F
ROCKLAND       SUNNY     27   9  46 E5        30.20S
FRYEBURG       SUNNY     34   3  27 S5        30.14F
LEWISTONAUBURN SUNNY     30   1  29 S5        30.17F
AUGUSTA        SUNNY     28   0  29 S5        30.18F
WATERVILLE     SUNNY     28   1  31 SW3       30.15S
BANGOR         MOSUNNY   25   5  42 CALM      30.19F
GREENVILLE       N/A     26   1  34 SE5       30.05F
MILLINOCKET    SUNNY     27   2  34 E8        30.16F
HOULTON        SUNNY     26   7  44 CALM      30.15F
PRESQUE ISLE   SUNNY     21   7  53 NE5       30.14F
FRENCHVILLE    FAIR      20   8  60 S8        30.10F
CARIBOU        SUNNY     20   4  50 E3        30.12F
$$

NHZ002-005-008-009-011-012-014-292100-
NEW HAMPSHIRE

CITY           SKY/WX    TMP DP  RH WIND       PRES   REMARKS
PORTSMOUTH     MOSUNNY   29  14  52 SE8       30.18F
ROCHESTER      SUNNY     31   0  26 SE8       30.18F
NASHUA         SUNNY     32   6  33 CALM      30.18F
MANCHESTER     MOSUNNY   31   5  33 SE8       30.16F
CONCORD        SUNNY     30   2  30 S8        30.16F
LACONIA        SUNNY     27   1  33 NE5       30.12F
PLYMOUTH       FAIR      32   8  36 E7        30.12F
BERLIN         SUNNY     25   6  44 CALM      30.05F
WHITEFIELD     SUNNY     24   8  50 CALM      30.06F
JAFFREY        SUNNY     34  -1  22 S5        30.10F
KEENE          SUNNY     32   3  29 CALM      30.12F
LEBANON        MOSUNNY   27   5  39 CALM      30.10F
MT WASHINGTON  MOSUNNY   16 -13  27 SW26        N/A  WCI  -3
$$

VTZ005-007-008-292100-
VERMONT

CITY           SKY/WX    TMP DP  RH WIND       PRES   REMARKS
ST JOHNSBURY     N/A     24   3  40 MISG      30.06F
MONTPELIER     PTSUNNY   27   3  35 S12       30.06F WCI  17
BURLINGTON     CLOUDY    29   1  30 S10       30.01F WCI  20
$$

MAZ007-012-024-CTZ003-RIZ002-NYZ038-NYZ072-292100-
SOUTHERN NEW ENGLAND AND NY

CITY           SKY/WX    TMP DP  RH WIND       PRES   REMARKS
BOSTON         MOSUNNY   30  18  60 CALM      30.21F
WORCESTER      SUNNY     30   0  27 SE8       30.13F
NANTUCKET      SUNNY     35  23  61 N6        30.19F
PROVIDENCE     PTSUNNY   30  14  51 SE8       30.21F
HARTFORD       PTSUNNY   31   1  28 SW6       30.17F
ALBANY         CLOUDY    28   3  34 S14G22    30.09F WCI  17
NEW YORK CITY  CLOUDY    30  17  58 S9        30.20F
$$

ANZ081-ANZ082-ANZ150-NHZ014-MEZ023>029-292100-
COASTAL MARINE OBSERVATIONS

STATION/POSITION TIME  TEMP    WIND        PRES    WAVE
                       AIR SEA DIR/SP/G            HT/PER
                 (UTC) (F)     (DEG/KT/KT) (MB)    (FT/S)
MOUNT DESERT ROC 2000   32                 1021.9F
MATINICUS ROCK   1900           30/  4/  6 1023.2F
PORTLAND WX BUOY 1950   29 41   CALM  /  4 1023.3F   3/10
ISLE OF SHOALS   1900   28     340/  1/  2 1023.0F
CASHES LEDGE BUO 1950   31 44   60/  6/  8 1022.8F   3/10
$$

.............KEY..............
   WCI - WIND CHILL
   TC  - TEMPERATURE IN CELSIUS
   VSB - VISIBILITY IN MILES
   HX  - HEAT INDEX
   FAIR- INDICATES FEW OR NO CLOUDS BELOW 12,000 FT, WITH NO
         SIGNIFICANT WEATHER AND/OR OBSTRUCTIONS TO VISIBILITY.




USA.gov is the U.S. government's official web portal to all federal, state and local government web resources and services.